Time,TemperatureF,DewpointF,PressureIn,WindDirection,WindDirectionDegrees,WindSpeedMPH,WindSpeedGustMPH,Humidity,HourlyPrecipIn,Conditions,Clouds,dailyrainin,SoftwareType,DateUTC
2015-01-26 00:07:00,52.7,46.0,29.98,West,281,0.0,1.0,79,0.00,,,0.00,weatherlink.com 1.10,2015-01-26 05:07:00,
2015-01-26 00:22:00,52.6,47.0,29.97,West,281,0.0,1.0,81,0.00,,,0.00,weatherlink.com 1.10,2015-01-26 05:22:00,
2015-01-26 00:37:00,52.5,47.0,29.96,West,281,2.0,2.0,80,0.00,,,0.00,weatherlink.com 1.10,2015-01-26 05:37:00,
2015-01-26 00:52:00,52.4,47.0,29.96,West,281,1.0,2.0,82,0.00,,,0.00,weatherlink.com 1.10,2015-01-26 05:52:00,
2015-01-26 01:08:00,52.1,47.0,29.95,West,281,2.0,2.0,82,0.00,,,0.00,weatherlink.com 1.10,2015-01-26 06:08:00,
2015-01-26 01:23:00,52.0,47.0,29.94,West,281,1.0,3.0,83,0.00,,,0.00,weatherlink.com 1.10,2015-01-26 06:23:00,
2015-01-26 01:38:00,51.8,48.0,29.93,West,281,2.0,3.0,85,0.00,,,0.00,weatherlink.com 1.10,2015-01-26 06:38:00,
2015-01-26 01:53:00,52.6,49.0,29.93,West,281,2.0,4.0,87,0.00,,,0.00,weatherlink.com 1.10,2015-01-26 06:53:00,
2015-01-26 02:08:00,52.5,49.0,29.93,West,281,3.0,4.0,86,0.00,,,0.00,weatherlink.com 1.10,2015-01-26 07:08:00,
2015-01-26 02:23:00,52.8,49.0,29.93,West,281,1.0,3.0,88,0.00,,,0.00,weatherlink.com 1.10,2015-01-26 07:23:00,
2015-01-26 02:38:00,53.1,50.0,29.93,West,281,0.0,3.0,89,0.00,,,0.00,weatherlink.com 1.10,2015-01-26 07:38:00,
2015-01-26 02:53:00,53.5,51.0,29.93,West,281,2.0,4.0,90,0.00,,,0.00,weatherlink.com 1.10,2015-01-26 07:53:00,
2015-01-26 03:08:00,54.0,51.0,29.93,West,281,2.0,5.0,90,0.00,,,0.00,weatherlink.com 1.10,2015-01-26 08:08:00,
2015-01-26 03:23:00,54.3,52.0,29.93,West,281,3.0,4.0,90,0.00,,,0.00,weatherlink.com 1.10,2015-01-26 08:23:00,
2015-01-26 03:38:00,54.2,51.0,29.92,West,278,2.0,4.0,90,0.00,,,0.00,weatherlink.com 1.10,2015-01-26 08:38:00,
2015-01-26 03:53:00,54.2,51.0,29.92,West,278,1.0,4.0,90,0.00,,,0.00,weatherlink.com 1.10,2015-01-26 08:53:00,
2015-01-26 04:08:00,53.7,51.0,29.91,West,278,2.0,2.0,89,0.00,,,0.00,weatherlink.com 1.10,2015-01-26 09:08:00,
2015-01-26 04:23:00,53.7,51.0,29.92,West,278,3.0,4.0,90,0.00,,,0.00,weatherlink.com 1.10,2015-01-26 09:23:00,
2015-01-26 04:38:00,54.1,52.0,29.92,West,263,4.0,6.0,91,0.00,,,0.00,weatherlink.com 1.10,2015-01-26 09:38:00,
2015-01-26 04:53:00,54.4,52.0,29.91,West,260,3.0,6.0,91,0.00,,,0.00,weatherlink.com 1.10,2015-01-26 09:53:00,
2015-01-26 05:08:00,54.9,52.0,29.91,WSW,245,3.0,6.0,91,0.00,,,0.00,weatherlink.com 1.10,2015-01-26 10:08:00,
2015-01-26 05:23:00,55.4,53.0,29.91,SSW,208,3.0,7.0,91,0.00,,,0.00,weatherlink.com 1.10,2015-01-26 10:23:00,
2015-01-26 05:38:00,55.9,53.0,29.91,SSW,208,4.0,6.0,91,0.00,,,0.00,weatherlink.com 1.10,2015-01-26 10:38:00,
2015-01-26 05:53:00,56.3,54.0,29.90,South,185,2.0,7.0,90,0.00,,,0.00,weatherlink.com 1.10,2015-01-26 10:53:00,
2015-01-26 06:08:00,56.8,54.0,29.90,South,187,3.0,9.0,90,0.00,,,0.00,weatherlink.com 1.10,2015-01-26 11:08:00,
2015-01-26 06:23:00,57.1,54.0,29.90,South,180,4.0,9.0,90,0.00,,,0.00,weatherlink.com 1.10,2015-01-26 11:23:00,
2015-01-26 06:38:00,57.4,54.0,29.90,South,188,4.0,9.0,89,0.00,,,0.00,weatherlink.com 1.10,2015-01-26 11:38:00,
2015-01-26 06:53:00,57.7,55.0,29.90,South,174,4.0,8.0,89,0.00,,,0.00,weatherlink.com 1.10,2015-01-26 11:53:00,
2015-01-26 07:08:00,58.0,55.0,29.90,South,169,5.0,10.0,89,0.00,,,0.00,weatherlink.com 1.10,2015-01-26 12:08:00,
2015-01-26 07:23:00,58.7,55.0,29.90,South,181,6.0,10.0,88,0.00,,,0.00,weatherlink.com 1.10,2015-01-26 12:23:00,
2015-01-26 07:38:00,59.6,56.0,29.89,South,174,6.0,10.0,87,0.00,,,0.00,weatherlink.com 1.10,2015-01-26 12:38:00,
2015-01-26 07:53:00,60.3,57.0,29.89,SSE,165,5.0,10.0,87,0.00,,,0.00,weatherlink.com 1.10,2015-01-26 12:53:00,
2015-01-26 08:08:00,61.0,57.0,29.90,SSW,200,6.0,11.0,86,0.00,,,0.00,weatherlink.com 1.10,2015-01-26 13:08:00,
2015-01-26 08:23:00,61.5,57.0,29.90,South,183,6.0,12.0,85,0.00,,,0.00,weatherlink.com 1.10,2015-01-26 13:23:00,
2015-01-26 08:38:00,63.3,58.0,29.91,SSW,199,9.0,11.0,84,0.00,,,0.00,weatherlink.com 1.10,2015-01-26 13:38:00,
2015-01-26 08:53:00,65.1,59.0,29.91,SSW,211,9.0,15.0,80,0.00,,,0.00,weatherlink.com 1.10,2015-01-26 13:53:00,
2015-01-26 09:08:00,66.2,59.0,29.90,SSW,209,8.0,17.0,78,0.00,,,0.00,weatherlink.com 1.10,2015-01-26 14:08:00,
2015-01-26 09:23:00,67.5,60.0,29.90,SSW,199,4.0,16.0,76,0.00,,,0.00,weatherlink.com 1.10,2015-01-26 14:23:00,
2015-01-26 09:38:00,68.8,60.0,29.90,South,187,8.0,16.0,74,0.00,,,0.00,weatherlink.com 1.10,2015-01-26 14:38:00,
2015-01-26 09:53:00,69.8,61.0,29.89,SSW,200,7.0,20.0,73,0.00,,,0.00,weatherlink.com 1.10,2015-01-26 14:53:00,
2015-01-26 10:08:00,71.1,61.0,29.91,WSW,240,4.0,21.0,71,0.00,,,0.00,weatherlink.com 1.10,2015-01-26 15:08:00,
2015-01-26 10:23:00,68.1,62.0,29.90,SW,236,6.0,20.0,82,0.02,,,0.02,weatherlink.com 1.10,2015-01-26 15:23:00,
2015-01-26 10:38:00,64.6,61.0,29.93,NW,314,5.0,24.0,88,0.07,,,0.00,weatherlink.com 1.10,2015-01-26 15:38:00,
2015-01-26 10:53:00,63.4,60.0,29.92,WNW,291,5.0,21.0,87,0.07,,,0.00,weatherlink.com 1.10,2015-01-26 15:53:00,
2015-01-26 11:08:00,63.5,60.0,29.91,West,262,7.0,10.0,88,0.07,,,0.00,weatherlink.com 1.10,2015-01-26 16:08:00,
2015-01-26 11:23:00,64.3,61.0,29.91,WSW,245,7.0,12.0,88,0.05,,,0.00,weatherlink.com 1.10,2015-01-26 16:23:00,
2015-01-26 11:38:00,65.9,61.0,29.90,NW,304,8.0,13.0,85,0.00,,,0.00,weatherlink.com 1.10,2015-01-26 16:38:00,
2015-01-26 11:54:00,67.9,62.0,29.89,West,278,3.0,21.0,81,0.00,,,0.00,weatherlink.com 1.10,2015-01-26 16:54:00,
2015-01-26 12:09:00,69.0,62.0,29.88,NW,312,3.0,16.0,78,0.00,,,0.00,weatherlink.com 1.10,2015-01-26 17:09:00,
2015-01-26 12:24:00,70.2,61.0,29.87,WNW,297,9.0,21.0,73,0.00,,,0.00,weatherlink.com 1.10,2015-01-26 17:24:00,
2015-01-26 12:39:00,71.2,61.0,29.86,West,266,4.0,21.0,71,0.00,,,0.00,weatherlink.com 1.10,2015-01-26 17:39:00,
2015-01-26 12:54:00,71.4,61.0,29.84,West,272,7.0,20.0,70,0.00,,,0.00,weatherlink.com 1.10,2015-01-26 17:54:00,
2015-01-26 13:09:00,72.4,61.0,29.83,WSW,247,13.0,19.0,67,0.00,,,0.00,weatherlink.com 1.10,2015-01-26 18:09:00,
2015-01-26 13:24:00,73.3,60.0,29.82,West,280,12.0,23.0,63,0.00,,,0.00,weatherlink.com 1.10,2015-01-26 18:24:00,
2015-01-26 13:39:00,73.8,60.0,29.81,WNW,285,12.0,22.0,63,0.00,,,0.00,weatherlink.com 1.10,2015-01-26 18:39:00,
2015-01-26 13:54:00,72.9,59.0,29.81,WNW,283,4.0,19.0,62,0.00,,,0.00,weatherlink.com 1.10,2015-01-26 18:54:00,
2015-01-26 14:09:00,73.8,59.0,29.81,West,262,6.0,20.0,61,0.00,,,0.00,weatherlink.com 1.10,2015-01-26 19:09:00,
2015-01-26 14:24:00,74.3,58.0,29.81,WSW,253,22.0,25.0,58,0.00,,,0.00,weatherlink.com 1.10,2015-01-26 19:24:00,
2015-01-26 14:39:00,75.5,55.0,29.81,West,280,13.0,30.0,50,0.00,,,0.00,weatherlink.com 1.10,2015-01-26 19:39:00,
2015-01-26 14:54:00,75.2,52.0,29.81,North,354,3.0,28.0,45,0.00,,,0.00,weatherlink.com 1.10,2015-01-26 19:54:00,
2015-01-26 15:09:00,75.5,52.0,29.81,WSW,247,13.0,21.0,44,0.00,,,0.00,weatherlink.com 1.10,2015-01-26 20:09:00,
2015-01-26 15:24:00,75.7,51.0,29.81,SW,235,9.0,21.0,42,0.00,,,0.00,weatherlink.com 1.10,2015-01-26 20:24:00,
2015-01-26 15:39:00,75.3,49.0,29.81,WNW,300,6.0,22.0,40,0.00,,,0.00,weatherlink.com 1.10,2015-01-26 20:39:00,
2015-01-26 15:54:00,74.8,49.0,29.82,WNW,290,8.0,24.0,40,0.00,,,0.00,weatherlink.com 1.10,2015-01-26 20:54:00,
2015-01-26 16:09:00,74.7,51.0,29.82,West,260,10.0,28.0,43,0.00,,,0.00,weatherlink.com 1.10,2015-01-26 21:09:00,
2015-01-26 16:24:00,74.1,50.0,29.82,WSW,256,9.0,24.0,43,0.00,,,0.00,weatherlink.com 1.10,2015-01-26 21:24:00,
2015-01-26 16:39:00,73.3,51.0,29.83,West,273,15.0,27.0,45,0.00,,,0.00,weatherlink.com 1.10,2015-01-26 21:39:00,
2015-01-26 16:54:00,73.0,50.0,29.83,West,279,14.0,21.0,45,0.00,,,0.00,weatherlink.com 1.10,2015-01-26 21:54:00,
2015-01-26 17:09:00,72.2,51.0,29.84,SW,230,5.0,21.0,47,0.00,,,0.00,weatherlink.com 1.10,2015-01-26 22:09:00,
2015-01-26 17:24:00,71.2,51.0,29.85,NW,316,6.0,22.0,49,0.00,,,0.00,weatherlink.com 1.10,2015-01-26 22:24:00,
2015-01-26 17:39:00,70.1,50.0,29.85,NW,306,14.0,15.0,49,0.00,,,0.00,weatherlink.com 1.10,2015-01-26 22:39:00,
2015-01-26 17:54:00,68.8,49.0,29.86,WNW,296,14.0,19.0,49,0.00,,,0.00,weatherlink.com 1.10,2015-01-26 22:54:00,
2015-01-26 18:09:00,67.9,49.0,29.86,NW,320,6.0,23.0,51,0.00,,,0.00,weatherlink.com 1.10,2015-01-26 23:09:00,
2015-01-26 18:24:00,67.1,49.0,29.87,West,262,6.0,19.0,53,0.00,,,0.00,weatherlink.com 1.10,2015-01-26 23:24:00,
2015-01-26 18:39:00,66.4,50.0,29.88,WNW,283,11.0,17.0,55,0.00,,,0.00,weatherlink.com 1.10,2015-01-26 23:39:00,
2015-01-26 18:54:00,65.9,50.0,29.88,WSW,258,7.0,18.0,57,0.00,,,0.00,weatherlink.com 1.10,2015-01-26 23:54:00,
2015-01-26 19:09:00,65.3,50.0,29.88,West,260,10.0,11.0,59,0.00,,,0.00,weatherlink.com 1.10,2015-01-27 00:09:00,
2015-01-26 19:24:00,64.8,51.0,29.89,West,260,6.0,10.0,61,0.00,,,0.00,weatherlink.com 1.10,2015-01-27 00:24:00,
2015-01-26 19:39:00,64.1,51.0,29.89,West,262,2.0,11.0,62,0.00,,,0.00,weatherlink.com 1.10,2015-01-27 00:39:00,
2015-01-26 19:54:00,63.6,51.0,29.89,WSW,247,4.0,13.0,63,0.00,,,0.00,weatherlink.com 1.10,2015-01-27 00:54:00,
2015-01-26 20:09:00,63.2,50.0,29.90,West,262,5.0,13.0,62,0.00,,,0.00,weatherlink.com 1.10,2015-01-27 01:09:00,
2015-01-26 20:24:00,62.9,50.0,29.91,West,262,5.0,12.0,63,0.00,,,0.00,weatherlink.com 1.10,2015-01-27 01:24:00,
2015-01-26 20:39:00,62.5,50.0,29.91,WNW,290,7.0,11.0,64,0.00,,,0.00,weatherlink.com 1.10,2015-01-27 01:39:00,
2015-01-26 20:54:00,62.2,50.0,29.93,West,275,9.0,12.0,64,0.00,,,0.00,weatherlink.com 1.10,2015-01-27 01:54:00,
2015-01-26 21:09:00,61.9,50.0,29.92,West,277,4.0,10.0,66,0.00,,,0.00,weatherlink.com 1.10,2015-01-27 02:09:00,
2015-01-26 21:24:00,61.5,51.0,29.92,WNW,291,8.0,11.0,68,0.00,,,0.00,weatherlink.com 1.10,2015-01-27 02:24:00,
2015-01-26 21:39:00,60.9,51.0,29.92,WSW,256,7.0,9.0,69,0.00,,,0.00,weatherlink.com 1.10,2015-01-27 02:39:00,
2015-01-26 21:55:00,60.5,51.0,29.93,West,273,3.0,12.0,70,0.00,,,0.00,weatherlink.com 1.10,2015-01-27 02:55:00,
2015-01-26 22:10:00,59.9,51.0,29.93,WSW,246,3.0,9.0,72,0.00,,,0.00,weatherlink.com 1.10,2015-01-27 03:10:00,
2015-01-26 22:25:00,59.5,51.0,29.93,West,268,6.0,9.0,73,0.00,,,0.00,weatherlink.com 1.10,2015-01-27 03:25:00,
2015-01-26 22:40:00,59.0,51.0,29.93,West,270,4.0,6.0,75,0.00,,,0.00,weatherlink.com 1.10,2015-01-27 03:40:00,
2015-01-26 22:55:00,58.6,51.0,29.94,West,268,3.0,7.0,76,0.00,,,0.00,weatherlink.com 1.10,2015-01-27 03:55:00,
2015-01-26 23:10:00,58.3,51.0,29.94,West,264,6.0,9.0,77,0.00,,,0.00,weatherlink.com 1.10,2015-01-27 04:10:00,
2015-01-26 23:25:00,58.1,52.0,29.95,West,273,9.0,10.0,79,0.00,,,0.00,weatherlink.com 1.10,2015-01-27 04:25:00,
2015-01-26 23:40:00,57.9,51.0,29.95,West,275,5.0,10.0,79,0.00,,,0.00,weatherlink.com 1.10,2015-01-27 04:40:00,
2015-01-26 23:55:00,57.7,51.0,29.95,NW,319,10.0,10.0,79,0.00,,,0.00,weatherlink.com 1.10,2015-01-27 04:55:00,